星链-4642 (STARLINK-4642 )

导读

STARLINK-4642是美国SpaceX公司星链计划中的一颗卫星,于2022年9月5日发射升空。作为星链星座组网的一员,它主要用于为全球提供低延迟、高速率的宽带互联网服务,尤其覆盖偏远地区等网络基础设施薄弱区域,依托近地轨道部署,支撑全球卫星互联网的持续组网与服务拓展。

Basic Information
目录编号:
53720
目录名称:
STARLINK-4642
国际标识:
2022-107W
轨道中心:
EARTH
卫星名称:
星链-4642
卫星全名:
星链-4642 (STARLINK-4642 )
卫星状态:
在轨 (已飞行1381 天)
发射日期:
2022-09-05 UTC
国别 :
美国 (US)
星等 :
--
Orbit Information
数据来源 国际轨道数据 AOE轨道数据
星历时间 2026-06-17T00:42:30+0800
17小时前
查看轨道信息
2026-06-15T06:00:00+0800
2天前
查看轨道信息
半长轴 6917.905km 6917.888km
偏心率 0.0001163 0.0001222
轨道倾角 53.161° 53.156°
近地点辐角 72.948° 53.856°
升交点赤经 169.327° 177.335°
平近点角 287.164° 355.020°
近地点 538.963km 538.905km
远地点 540.573km 540.597km
周期 95.438分钟 95.438分钟
每日圈数 15.088321 15.088377
Detailed Information
固有亮度:
5
最大亮度:
2.5
卫星平台:
Starlink v1.5
覆盖范围:
全球
运营商:
太空探索技术公司
运营商所在国:
美国
制造商(研发单位):
太空探索技术公司
制造商所在国:
美国
使用方式:
暂无
Satellite Introduction
星链(Starlink)计划是由太空探索技术公司(SpaceX)提出的一个巨型低轨卫星互联网星座项目,计划在2019年至2024年间在太空搭建由约1.2万颗卫星组成的“星链”网络,其中1584颗将部署在地球上空550千米处的近地轨道,并从2020年开始工作。该卫星仍在工作。
2D Orbit Map
3D Orbit Map
Orbit Altitude Analysis Chart
Orbit Inclination Analysis Chart
Orbit Comprehensive Analysis Chart
View Comprehensive Chart